Location: Chilton Park
(37.7711°N, 100.0276°W)
Time: 20:37:21
(UTC+00:00)

Cosmos 1898 Rocket - Pass Details

Date: 08 December 2021
Orbit: 754 x 782 km, 74.0° (Epoch: 16 January)

Event Time Altitude Azimuth Distance (km) Brightness Sun altitude
Rises 12:59:08 0° 192° (SSW) 3,253 6.9 -8.7°
Reaches altitude 10° 13:01:31 10° 191° (S) 2,329 6.2 -8.3°
Maximum altitude 13:06:48 76° 106° (ESE) 807 3.8 -7.3°
Drops below altitude 10° 13:12:06 10° 22° (NNE) 2,336 6.0 -6.4°
Sets 13:14:30 0° 20° (NNE) 3,264 6.7 -5.9°
